Location: Bühlhof
(48.7849°N, 8.6361°E)
Time: 21:18:54
(UTC+00:00)

Cosmos 1980 Rocket - Pass Details

Date: 19 January 2026
Orbit: 829 x 848 km, 71.0° (Epoch: 15 February)

Event Time Altitude Azimuth Distance (km) Brightness Sun altitude
Rises 20:01:12 0° 323° (NW) 3,384 5.9 -38.7°
Reaches altitude 10° 20:03:59 10° 311° (NW) 2,447 5.2 -39.1°
Enters shadow 20:07:23 24° 276° (W) 1,659 4.2 -39.7°
